Regional Weather Roundup
Issued by NWS

Home | Current Version | Previous Version | Graphics & Text | Print | Product List | Glossary On
Versions: 1 2 3 4 5 6 7 8 9 10 11 12 13 14 15 16 17 18 19 20 21 22 23 24 25 26 27 28 29 30 31 32 33 34 35 36 37 38 39 40 41 42 43 44 45 46 47 48 49 50
000
ASUS43 KDTX 220110
RWRMI
MICHIGAN HOURLY REGIONAL WEATHER ROUNDUP
NATIONAL WEATHER SERVICE DETROIT/PONTIAC MI
900 PM EDT THU AUG 21 2014

NOTE: "FAIR" INDICATES FEW OR NO CLOUDS BELOW 12,000 FEET WITH NO
SIGNIFICANT WEATHER AND/OR OBSTRUCTION TO VISIBILITY.

MIZ047>049-052>055-059>063-066>070-074>076-081>083-220200-
SOUTHEAST LOWER MICHIGAN

CITY           SKY/WX    TMP DP  RH WIND       PRES   REMARKS
ADRIAN         CLOUDY    75  69  81 CALM      29.97F
ALMA           MOCLDY    71  67  89 CALM      29.97R
ANN ARBOR      CLOUDY    73  70  90 SW5       29.97R
BAD AXE        PTCLDY    64  64 100 CALM      29.99R
DETROIT CITY   CLOUDY    76  71  85 S3        29.96R
DETROIT        CLOUDY    76  71  85 SW5       29.96S
FLINT          MOCLDY    76  66  71 NE7       29.97R
GROSSE ILE     CLOUDY    75  72  88 SW3       29.94F
HILLSDALE      CLOUDY    74  72  94 CALM      29.98F
HOWELL         CLOUDY    73  68  86 CALM      29.98R

CITY           SKY/WX    TMP DP  RH WIND       PRES   REMARKS
JACKSON        CLOUDY    74  71  91 CALM      29.97F
LAMBERTVILLE   CLOUDY    77  68  73 SW3       29.98S
LANSING        MOCLDY    73  69  87 S5        29.97S
LAPEER         NOT AVBL
MASON          LGT RAIN  72  69  92 CALM      29.97S
MONROE         CLOUDY    75  70  83 SW7       29.95S
MT. CLEMENS    CLOUDY    74  67  80 N1        29.95R
PONTIAC        CLOUDY    75  67  76 NE3       29.96S
PORT HOPE        N/A     64  61  90 CALM      29.97S
PORT HURON     MOCLDY    68  64  88 NE8       29.98R
TRI CITIES     MOCLDY    72  66  81 SE5       29.97S
YPSILANTI      CLOUDY    78  72  81 SW3       29.97R
$$
MIZ043>046-050>051-056>058-064>065-071>073-077>080-220200-
SOUTHWEST LOWER MICHIGAN

CITY           SKY/WX    TMP DP  RH WIND       PRES   REMARKS
BATTLE CREEK   MOCLDY    76  70  82 CALM      29.97F
BENTON HARBOR  PTCLDY    73  71  93 E6        29.92S
BIG RAPIDS     MOCLDY    70  68  94 SE3       29.96S
COLDWATER      CLOUDY    75  71  87 CALM      29.96F
HOLLAND        CLEAR     74  70  87 NE3       29.95F
GRAND RAPIDS   MOCLDY    74  72  93 CALM      29.96S
KALAMAZOO      MOCLDY    75  71  87 CALM      29.96S
MARSHALL       CLOUDY    73  70  90 CALM      29.96F
MUSKEGON       PTCLDY    72  69  90 CALM      29.95S FOG
$$
MIZ016>042-220200-
NORTHERN LOWER MICHIGAN

CITY           SKY/WX    TMP DP  RH WIND       PRES   REMARKS
ALPENA         CLEAR     63  62  97 CALM      29.98S
BEAVER ISLAND  PTCLDY    65  63  94 CALM      29.97S
BELLAIRE       PTCLDY    67  64  89 CALM      29.95S
CADILLAC       MOCLDY    70  65  85 CALM      29.98R
CHARLEVOIX     PTCLDY    67  62  86 CALM      29.99S
FRANKFORT      MOCLDY    72  65  80 NE3       29.94S
GAYLORD        PTCLDY    67  62  84 NE5       29.99R
GRAYLING       PTCLDY    69  66  89 CALM      29.99S
HARBOR SPRINGS PTCLDY    69  64  83 NE3       29.97R
HOUGHTON LAKE  MOCLDY    67  64  90 CALM      29.99R
MANISTEE       CLOUDY    72  64  78 CALM      29.96R
OSCODA         CLEAR     64  62  93 CALM      29.97S
PELLSTON       PTCLDY    66  63  90 CALM      29.97S
TRAVERSE CITY  MOCLDY    69  64  84 CALM      29.95R
$$
MIZ007>008-015-220200-
EASTERN UPPER MICHIGAN

CITY           SKY/WX    TMP DP  RH WIND       PRES   REMARKS
KINROSS        PTCLDY    68  66  94 N5        29.98R
MACKINAC ISLAN PTCLDY    64  63  94 E3        29.97S
NEWBERRY       MOCLDY    63  61  91 CALM      29.96S
S. S. MARIE    MOCLDY    68  63  84 CALM      29.96F
$$
MIZ004>006-011>014-085-220200-
CENTRAL UPPER MICHIGAN

CITY           SKY/WX    TMP DP  RH WIND       PRES   REMARKS
MANISTIQUE     MOCLDY    62  61  97 CALM      29.96R
ESCANABA       CLOUDY    64  61  88 CALM      29.96S
MENOMINEE      MOCLDY    68  61  77 SE6       29.94S
SAWYER-GWINN   CLOUDY    68  63  83 S3        29.97S
$$
MIZ001>003-009>011-084-220200-
WESTERN UPPER MICHIGAN

CITY           SKY/WX    TMP DP  RH WIND       PRES   REMARKS
IRON MOUNTAIN  CLOUDY    66  63  90 SE5       29.95S
HOUGHTON       FOG       57  56  96 E7        29.95S VSB<1/4
COPPER HARBOR    N/A     59  55  87 CALM      29.95S
IRONWOOD       MOCLDY    72  66  83 SE6       29.89R
$$

ABBREVIATIONS USED IN REMARKS
   TC - TEMPERATURE IN CELSIUS
  WCI - WIND CHILL INDEX
   HX - HEAT INDEX
  VSB - VISIBILITY



USA.gov is the U.S. government's official web portal to all federal, state and local government web resources and services.